Regional Weather Roundup
Issued by NWS

Home | Current Version | Previous Version | Graphics & Text | Print | Product List | Glossary On
Versions: 1 2 3 4 5 6 7 8 9 10 11 12 13 14 15 16 17 18 19 20 21 22 23 24 25 26 27 28 29 30 31 32 33 34 35 36 37 38 39 40 41 42 43 44 45 46 47 48 49 50
749
ASUS43 KDMX 230901
RWRIA

WEATHER ROUNDUP FOR IOWA
NATIONAL WEATHER SERVICE DES MOINES IA
400 AM CDT SUN JUL 23 2017

NOTE: "FAIR" INDICATES FEW OR NO CLOUDS BELOW 12,000 FEET WITH NO
SIGNIFICANT WEATHER AND/OR OBSTRUCTIONS TO VISIBILITY.

* - THESE STATIONS ARE NOT NWS STATIONS...THUS NOT UNDER NWS
QUALITY CONTROL.  THEY ALSO DO NOT REPORT WEATHER SUCH
AS PRECIPITATION OR FOG.

IAZ001>003-012>014-020>022-031>034-043>046-231000-
   NORTHWEST IOWA

CITY           SKY/WX    TMP DP  RH WIND       PRES   REMARKS
CARROLL *      CLEAR     70  70 100 CALM      29.91R FOG
CHEROKEE *     CLEAR     66  66 100 S5        29.92R FOG
DENISON *      FOG       72  72 100 SW3       29.95R VSB<1/4
ORANGE CITY *  CLEAR     66  66 100 NW3       29.93R
SHELDON *      PTCLDY    68  64  88 NW7       29.91S
SIOUX CITY     CLEAR     67  67 100 CALM      29.93S
SPENCER        CLEAR     67  64  90 W7        29.91R
STORM LAKE *   CLEAR     68  68 100 W7        29.92S
$$

IAZ055>058-069>071-079>083-090>094-231000-
   SOUTHWEST IOWA

CITY           SKY/WX    TMP DP  RH WIND       PRES   REMARKS
ATLANTIC *     CLOUDY    70  70 100 N3        29.92S FOG
AUDUBON *      FOG       72  68  88 CALM      29.94S VSB 1/4
CLARINDA *     FOG       72  72 100 CALM      29.93F VSB 1/4
COUNCIL BLFS * FOG       72  72 100 CALM      29.92F VSB<1/4
CRESTON *      CLEAR     72  72 100 W5        29.94S FOG
HARLAN  *      FOG       70  70 100 CALM      29.96S VSB<1/4
LAMONI         CLEAR     75  74  96 SW5       29.92F
RED OAK *      CLOUDY    68  68 100 CALM      29.92S
SHENANDOAH *   PTCLDY    72  70  94 CALM      29.92S FOG
$$

IAZ047>049-059>061-072>074-084-231000-
   CENTRAL IOWA

CITY           SKY/WX    TMP DP  RH WIND       PRES   REMARKS
AMES           PTCLDY    68  68 100 W6        29.87S FOG
ANKENY *       CLOUDY    73  73 100 W8        29.89R
BOONE *        CLEAR     70  68  94 W6        29.88S FOG
CHARITON *     PTCLDY    75  73  94 W7        29.90S
DES MOINES     CLOUDY    74  72  93 W6        29.88R
GRINNELL*      CLEAR     71  69  96 W3        29.88S FOG
KNOXVILLE *    PTCLDY    73  72  94 SW6       29.88R
MARSHALLTOWN   FOG       69  69 100 CALM      29.85F VSB 1/4
NEWTON *       FOG       72  70  94 SW5       29.87S VSB<1/4
PELLA *          N/A     73  72  95 S5        29.89R
$$

IAZ004>006-015-016-023>025-035-036-231000-
   NORTH CENTRAL IOWA

CITY           SKY/WX    TMP DP  RH WIND       PRES   REMARKS
ALGONA *       CLEAR     68  68 100 SW7       29.88S
ESTHERVILLE    CLEAR     64  63  96 W8        29.88R
FORT DODGE *   CLEAR     66  64  94 CALM      29.90R
MASON CITY     CLEAR     70  69  97 W6        29.87F
FOREST CITY *    N/A     68  68 100 CALM      29.86F FOG
WEBSTER CITY * CLEAR     68  68 100 W7        29.86S FOG
IOWA FALLS *   FOG       68  67  97 CALM      29.88S VSB 1/2
$$

IAZ007>011-017>019-026>030-037>042-050>054-066-231000-
   NORTHEAST IOWA

CITY           SKY/WX    TMP DP  RH WIND       PRES   REMARKS
CEDAR RAPIDS   CLEAR     68  68 100 W6        29.84R FOG
CHARLES CITY * CLEAR     66  66 100 W5        29.85S FOG
DECORAH *      FOG       68  68 100 CALM      29.82S VSB 1
DUBUQUE        CLEAR     71  69  93 NE5       29.83S
MONTICELLO *   CLEAR     70  68  94 CALM      29.82S FOG
WATERLOO       CLEAR     70  68  93 W3        29.83S
$$

IAZ064-065-067-068-078-231000-
   EAST CENTRAL IOWA

CITY           SKY/WX    TMP DP  RH WIND       PRES   REMARKS
DAVENPORT      MOCLDY    72  71  97 W5        29.84S
IOWA CITY      PTCLDY    73  71  93 CALM      29.86R
MUSCATINE *    CLOUDY    75  72  88 W3        29.84S
QUAD CITIES    CLOUDY    74  72  93 W5        29.83R
$$

IAZ062-063-075>077-085>089-095>099-231000-
   SOUTHEAST IOWA

CITY           SKY/WX    TMP DP  RH WIND       PRES   REMARKS
BURLINGTON     CLOUDY    76  75  97 W7        29.87R
FAIRFIELD *    CLOUDY    73  72  94 SW7       29.88R
FORT MADISON * CLOUDY    75  75 100 SW6       29.90R
KEOKUK *       CLOUDY    77  75  94 SW9       29.89R
OSKALOOSA *      N/A     72  70  96 SW6       29.89R
OTTUMWA        CLOUDY    74  74 100 SW6       29.89R
WASHINGTON *   CLOUDY    72  72 100 SW6       29.87R
$$

ABBREVIATIONS USED IN REMARKS
   TC - TEMPERATURES IN CELSIUS
  WCI - WIND CHILL INDEX
   HX - HEAT INDEX
  VSB - VISIBILITY
$$





USA.gov is the U.S. government's official web portal to all federal, state and local government web resources and services.